Regional Weather Roundup
Issued by NWS

Home | Current Version | Previous Version | Text Only | Print | Product List | Glossary Off
Versions: 1 2 3 4 5 6 7 8 9 10 11 12 13 14 15 16 17 18 19 20 21 22 23 24 25 26 27 28 29 30 31 32 33 34 35 36 37 38 39 40 41 42 43 44 45 46 47 48 49 50

000
ASUS43 KBIS 280120
RWRND

NORTH DAKOTA REGIONAL WEATHER ROUNDUP
NATIONAL WEATHER SERVICE BISMARCK ND
800 PM CDT WED AUG 27 2014

NOTE: "FAIR" INDICATES FEW OR NO CLOUDS BELOW 12,000 FEET WITH NO
SIGNIFICANT WEATHER AND/OR OBSTRUCTIONS TO VISIBILITY.


NDZ001>003-009>011-017-280200-
NORTHWEST NORTH DAKOTA

CITY           SKY/WX    TMP DP  RH WIND       PRES   REMARKS
WILLISTON      CLEAR     80  53  39 SE8       29.95F
MINOT          CLEAR     73  56  54 S9        29.99F
MINOT AFB      CLEAR     72  59  63 S7        29.98F
$$

NDZ018>021-031>035-040>046-280200-
SOUTHWEST NORTH DAKOTA

CITY           SKY/WX    TMP DP  RH WIND       PRES   REMARKS
BISMARCK       CLEAR     70  61  73 S8        30.04S
DICKINSON      PTCLDY    70  57  63 SE8       30.01F
GARRISON         N/A     71  59  65 S7        30.00F
HETTINGER ARPT CLOUDY    69  61  75 SE7       30.05F
$$

NDZ004>008-012>016-024-026-027-054-280200-
NORTHEAST NORTH DAKOTA

CITY           SKY/WX    TMP DP  RH WIND       PRES   REMARKS
GRAND FORKS    CLEAR     70  59  68 SE6       30.06F
GRND FRKS AFB  CLEAR     68  61  77 S7        30.07F
DEVILS LAKE    CLEAR     70  57  64 S8        30.03F
$$

NDZ022-023-025-028>030-036>039-047>053-280200-
SOUTHEAST NORTH DAKOTA

CITY           SKY/WX    TMP DP  RH WIND       PRES   REMARKS
FARGO          CLEAR     69  59  70 SE6       30.07F
JAMESTOWN      PTCLDY    68  61  78 SE6       30.05F
$$



USA.gov is the U.S. government's official web portal to all federal, state and local government web resources and services.